GW0882 Weather Reports


time (UTC)temp
C
wind
direction
speed
KPH
gust
KPH
rain 1hr
cm
rain 24hr
cm
rain mn
cm
humidity
%
barometer
mb
20260510113037 11 347 3.2 16.1 0.00 0.00 0.00 69 1016.0
20260510111549 11 43 1.6 17.7 0.00 0.00 0.00 71 1016.0
20260510110044 11 55 1.6 14.5 0.00 0.00 0.00 70 1016.1
20260510104546 11 68 1.6 12.9 0.00 0.00 0.00 70 1016.2
20260510103038 11 47 1.6 14.5 0.00 0.00 0.00 73 1016.4
20260510101535 11 0 1.6 6.4 0.00 0.00 0.00 76 1016.3
20260510100035 10 175 1.6 17.7 0.00 0.00 0.00 77 1016.2
20260510094539 10 76 1.6 14.5 0.00 0.00 0.00 76 1016.2
20260510093035 10 136 3.2 16.1 0.00 0.00 0.00 74 1016.2
20260510091538 10 0 3.2 19.3 0.00 0.00 0.00 74 1016.4
20260510090037 10 0 0.0 14.5 0.00 0.00 0.00 76 1016.6
20260510084536 10 32 3.2 16.1 0.00 0.00 0.00 75 1016.7
20260510083035 10 348 3.2 16.1 0.00 0.00 0.00 76 1016.7
20260510081542 10 75 1.6 16.1 0.00 0.00 0.00 77 1016.7
20260510080037 10 15 1.6 11.3 0.00 0.00 0.00 78 1016.6
20260510074542 10 0 1.6 20.9 0.00 0.00 0.00 79 1016.6
20260510073035 10 0 0.0 9.7 0.00 0.00 0.00 79 1016.6
20260510071536 10 37 0.0 8.0 0.00 0.00 0.00 80 1016.7
20260510070035 9 81 1.6 16.1 0.00 0.00 0.00 80 1016.6
20260510064536 9 0 0.0 9.7 0.00 0.00 0.00 81 1016.7
20260510063035 9 323 0.0 11.3 0.00 0.00 0.00 81 1016.8
20260510061537 8 0 0.0 14.5 0.00 0.00 0.00 81 1016.9
20260510060046 8 0 1.6 11.3 0.00 0.00 0.00 82 1016.7
20260510054541 8 53 0.0 6.4 0.00 0.00 0.00 82 1016.6
20260510053041 8 321 0.0 4.8 0.00 0.00 0.00 82 1016.5
20260510051542 8 76 0.0 14.5 0.00 0.00 0.00 83 1016.6
20260510050046 8 0 0.0 8.0 0.00 0.00 0.00 83 1016.6
20260510044543 8 89 0.0 17.7 0.00 0.00 0.00 83 1016.5
20260510043102 8 52 0.0 11.3 0.00 0.00 0.00 82 1016.5
20260510041536 8 355 0.0 9.7 0.00 0.00 0.00 82 1016.5
20260510040037 8 0 1.6 14.5 0.00 0.00 0.00 82 1016.7
20260510034545 8 22 0.0 11.3 0.00 0.00 0.00 82 1016.7
20260510033039 8 331 1.6 14.5 0.00 0.00 0.00 81 1016.8
20260510031608 8 0 0.0 14.5 0.00 0.00 0.00 81 1016.9
20260510030039 9 315 0.0 9.7 0.00 0.00 0.00 81 1016.8
20260510024538 9 0 0.0 16.1 0.00 0.00 0.00 81 1016.7
20260510023045 9 0 0.0 11.3 0.00 0.00 0.00 81 1016.7
20260510021545 9 15 0.0 6.4 0.00 0.00 0.00 80 1016.7
20260510020042 9 0 0.0 4.8 0.00 0.00 0.00 80 1016.8
20260510014538 10 12 0.0 11.3 0.00 0.00 0.00 79 1016.8
20260510013038 10 0 0.0 6.4 0.00 0.00 0.00 78 1016.9
20260510011543 10 26 0.0 8.0 0.00 0.00 0.00 78 1016.9
20260510010039 10 0 0.0 3.2 0.00 0.00 0.00 78 1016.9
20260510004541 10 342 0.0 3.2 0.00 0.00 0.00 77 1016.9
20260510003108 10 0 0.0 6.4 0.00 0.00 0.00 76 1016.8
20260510001536 10 0 0.0 9.7 0.00 0.00 0.00 75 1017.1
20260510000037 10 0 0.0 6.4 0.00 0.00 0.00 73 1017.1
20260509234541 10 0 0.0 4.8 0.00 0.00 0.00 72 1017.1
20260509233041 10 0 0.0 6.4 0.00 0.00 0.00 71 1017.1
20260509231544 11 0 0.0 9.7 0.00 0.00 0.00 70 1017.1
20260509230036 11 38 1.6 14.5 0.00 0.00 0.00 68 1017.2
20260509224538 11 0 0.0 9.7 0.00 0.00 0.00 67 1017.2
20260509223035 11 38 1.6 16.1 0.00 0.00 0.00 64 1017.2
20260509221540 11 0 3.2 20.9 0.00 0.00 0.00 62 1017.2
20260509220043 11 57 4.8 17.7 0.00 0.00 0.00 60 1017.2
20260509214541 11 51 1.6 17.7 0.00 0.00 0.00 59 1017.1
20260509213054 11 35 0.0 11.3 0.00 0.00 0.00 59 1017.3
20260509211604 11 0 0.0 16.1 0.00 0.00 0.00 57 1017.2
20260509210037 11 0 1.6 12.9 0.00 0.00 0.00 55 1017.1
20260509204557 11 0 1.6 12.9 0.00 0.00 0.00 53 1017.1
20260509203049 12 31 0.0 11.3 0.00 0.00 0.00 52 1016.9
20260509201540 12 56 0.0 11.3 0.00 0.00 0.00 52 1016.8
20260509200039 12 0 0.0 8.0 0.00 0.00 0.00 53 1016.8
20260509194538 13 59 0.0 9.7 0.00 0.00 0.00 52 1016.8
20260509193042 13 0 0.0 14.5 0.00 0.00 0.00 51 1016.8
20260509191541 14 15 1.6 16.1 0.00 0.00 0.00 50 1016.6
20260509190046 15 360 0.0 9.7 0.00 0.00 0.00 48 1016.3
20260509184538 15 92 1.6 11.3 0.00 0.00 0.00 47 1016.4
20260509183038 16 0 1.6 17.7 0.00 0.00 0.00 46 1016.4
20260509181536 17 49 1.6 9.7 0.00 0.00 0.00 46 1016.2
20260509180037 17 0 3.2 16.1 0.00 0.00 0.00 44 1016.3
20260509174541 18 47 1.6 11.3 0.00 0.00 0.00 45 1016.2
20260509173037 19 0 0.0 24.1 0.00 0.00 0.00 42 1016.0
20260509171536 20 0 1.6 12.9 0.00 0.00 0.00 43 1016.0
20260509170038 20 0 3.2 16.1 0.00 0.00 0.00 43 1016.1
20260509164540 20 100 6.4 25.7 0.00 0.00 0.00 43 1016.0
20260509163050 20 80 1.6 22.5 0.00 0.00 0.00 42 1016.2
20260509161540 21 139 6.4 22.5 0.00 0.00 0.00 42 1016.0
20260509160038 21 0 3.2 19.3 0.00 0.00 0.00 42 1016.0
20260509154537 21 37 4.8 24.1 0.00 0.00 0.00 42 1016.1
20260509153041 21 58 1.6 20.9 0.00 0.00 0.00 40 1016.2
20260509151541 21 80 4.8 17.7 0.00 0.00 0.00 42 1016.3
20260509150039 21 32 6.4 22.5 0.00 0.00 0.00 43 1016.5
20260509144536 20 0 8.0 22.5 0.00 0.00 0.00 44 1016.4
20260509143036 20 0 8.0 20.9 0.00 0.00 0.00 43 1016.2
20260509141536 21 26 1.6 24.1 0.00 0.00 0.00 42 1016.1
20260509140045 21 40 8.0 22.5 0.00 0.00 0.00 44 1016.0
20260509134548 21 34 1.6 14.5 0.00 0.00 0.00 43 1016.0
20260509133046 21 38 6.4 24.1 0.00 0.00 0.00 43 1016.1
20260509131536 21 47 4.8 22.5 0.00 0.00 0.00 45 1016.3
20260509130036 21 24 8.0 24.1 0.00 0.00 0.00 46 1016.4
20260509124539 21 67 3.2 19.3 0.00 0.00 0.00 45 1016.4
20260509123039 21 347 4.8 20.9 0.00 0.00 0.00 44 1016.5
20260509121540 21 40 4.8 20.9 0.00 0.00 0.00 48 1016.7
20260509120037 21 0 8.0 19.3 0.00 0.00 0.00 45 1016.8
20260509114538 21 277 1.6 12.9 0.00 0.00 0.00 48 1017.1